Content
SEND FEEDBACK

Daily
Averages
Monthly
Summary
France

ANNEMASSE, FRANCE


Home > Europe > France
Elevation: 1329 feet     Latitude: 46 12N     Longitude: 006 12E

WEATHER
 
SELECT A DAY
Number of Records: 305,246;   Date Range: 7/1/96 - 7/7/14
 
SHARE

PRINT THIS DATA

[ ← Previous Day ]
WEATHER ALMANAC - JANUARY 29, 2014
[ Next Day → ]
[ °C ]   °F
Weather ElementAverageHighLow
Temperature31.9 °F35.6 °F (12:20 pm)26 °F (6:00 am)
Dewpoint29.3 °F33.8 °F (11:20 pm)23 °F (6:00 am)
Humidity88.2 %100 % (12:50 am)72 % (2:00 pm)
Barometer29.50 in29.68 in (11:00 pm)29.42 in (12:50 am)
Wind Speed1.2 mph4.6 mph (6:00 pm)
Weather ElementAverage
Visibility6 mi
Wind DirectionESE (103.7 °)

Weather ElementTotal
Precipitation---
Heating Degree Days34.2 (Base 65)
Averaged from 71 records on January 29, 2014
WEATHER CONDITIONS BREAKOUT
WIND DIRECTION BREAKOUT
WEATHER BY HOUR - JANUARY 29, 2014
[ °C ]   °F
Local TimeTemperatureDewpointHumidityBarometerVisibilityWind DirectionWind SpeedGust SpeedPrecipitationEventsConditions
12:20 AM28.4 °F26.6 °F93 %29.44 inCalmClear
12:50 AM28.4 °F28.4 °F100 %29.42 inCalmClear
1:00 AM28.0 °F25.0 °F84 %29.51 in9.0 miWest (260°)2.3 mphHaze
1:20 AM28.4 °F26.6 °F93 %29.42 inCalmClear
1:50 AM26.6 °F26.6 °F100 %29.42 inCalmClear
2:00 AM28.0 °F26.0 °F87 %29.49 inWest (260°)2.3 mph
2:20 AM28.4 °F26.6 °F93 %29.42 inCalmClear
2:50 AM26.6 °F26.6 °F100 %29.42 inSW (220°)2.3 mphClear
3:00 AM29.0 °F26.0 °F81 %29.51 inWSW (240°)3.5 mph
3:20 AM28.4 °F26.6 °F93 %29.42 inWSW (240°)3.5 mphClear
3:50 AM26.6 °F26.6 °F100 %29.42 inCalmClear
4:00 AM28.0 °F26.0 °F88 %29.50 in11.0 miSW (220°)3.5 mphClear
4:20 AM26.6 °F24.8 °F93 %29.42 inCalmClear
4:50 AM26.6 °F26.6 °F100 %29.42 inCalmClear
5:00 AM27.0 °F25.0 °F89 %29.49 inNNW (330°)1.2 mph
5:20 AM26.6 °F24.8 °F93 %29.42 inCalmClear
5:50 AM26.6 °F24.8 °F93 %29.42 inCalmClear
6:00 AM26.0 °F23.0 °F83 %29.50 inWest (280°)2.3 mph
6:20 AM26.6 °F26.6 °F100 %29.42 in6.2 miCalmMostly Cloudy
6:50 AM28.4 °F26.6 °F93 %29.42 in6.2 miVariable1.2 mphMostly Cloudy
7:00 AM30.0 °F26.0 °F77 %29.49 in11.0 miSW (230°)3.5 mphMostly Cloudy
7:20 AM30.2 °F26.6 °F86 %29.42 in6.2 miCalmMostly Cloudy
7:50 AM30.2 °F26.6 °F86 %29.42 in6.2 miCalmMostly Cloudy
8:00 AM30.0 °F26.0 °F77 %29.50 inNW (320°)2.3 mph
8:20 AM30.2 °F26.6 °F86 %29.44 in6.2 miCalmMostly Cloudy
8:50 AM30.2 °F28.4 °F93 %29.44 in6.2 miCalmMostly Cloudy
9:00 AM31.0 °F27.0 °F77 %29.52 inWest (260°)1.2 mph
9:20 AM32.0 °F28.4 °F87 %29.44 in3.7 miWSW (240°)1.2 mphSnowLight Snow Grains
9:50 AM30.2 °F30.2 °F100 %29.47 in1.0 miVariable1.2 mphSnowSnow
10:00 AM31.0 °F29.0 °F88 %29.54 in1.0 miWNW (290°)2.3 mphSnowSnow
10:20 AM30.2 °F30.2 °F100 %29.47 in0.6 miCalmSnowSnow
10:50 AM32.0 °F30.2 °F93 %29.47 in1.1 miVariable1.2 mphSnowLight Snow
11:00 AM32.0 °F29.0 °F85 %29.55 inNorth2.3 mph
11:20 AM32.0 °F32.0 °F100 %29.47 in3.1 miVariable2.3 mphSnowLight Snow
11:50 AM32.0 °F30.2 °F93 %29.47 in3.7 miCalmMostly Cloudy
12:00 PM34.0 °F30.0 °F79 %29.54 inNW (310°)3.5 mph
12:20 PM35.6 °F32.0 °F87 %29.47 in6.2 miVariable1.2 mphMostly Cloudy
12:50 PM35.6 °F32.0 °F87 %29.47 in6.2 miVariable1.2 mphMostly Cloudy
1:00 PM35.0 °F30.0 °F74 %29.53 in11.0 miWest (280°)2.3 mphPartly Cloudy
1:20 PM35.6 °F30.2 °F81 %29.47 in6.2 miCalmMostly Cloudy
1:50 PM35.6 °F32.0 °F87 %29.47 in6.2 miVariable1.2 mphMostly Cloudy
2:00 PM35.0 °F29.0 °F72 %29.52 inSW (220°)2.3 mph
2:20 PM35.6 °F30.2 °F81 %29.44 in6.2 miCalmMostly Cloudy
2:50 PM35.6 °F30.2 °F81 %29.44 in6.2 miCalmMostly Cloudy
3:00 PM35.0 °F29.0 °F72 %29.52 inWSW (250°)2.3 mph
3:20 PM35.6 °F30.2 °F81 %29.44 in6.2 miCalmMostly Cloudy
3:50 PM35.6 °F32.0 °F87 %29.47 in6.2 miVariable1.2 mphMostly Cloudy
4:00 PM35.0 °F31.0 °F78 %29.53 in11.0 miWest (260°)2.3 mphOvercast
4:20 PM35.6 °F32.0 °F87 %29.47 in6.2 miCalmMostly Cloudy
4:50 PM35.6 °F32.0 °F87 %29.47 in6.2 miVariable1.2 mphMostly Cloudy
5:00 PM35.0 °F31.0 °F78 %29.54 inWest (280°)2.3 mph
5:20 PM35.6 °F32.0 °F87 %29.50 in6.2 miWSW (240°)1.2 mphMostly Cloudy
5:50 PM35.6 °F32.0 °F87 %29.50 in6.2 miSW (230°)3.5 mphMostly Cloudy
6:00 PM35.0 °F31.0 °F81 %29.56 inWSW (240°)4.6 mph
6:20 PM33.8 °F32.0 °F93 %29.50 in6.2 miWSW (250°)3.5 mphMostly Cloudy
6:50 PM33.8 °F32.0 °F93 %29.50 in6.2 miVariable1.2 mphMostly Cloudy
7:00 PM35.0 °F31.0 °F78 %29.58 in6.0 miSW (220°)2.3 mphSnowLight Snow
7:20 PM33.8 °F32.0 °F93 %29.53 in6.2 miCalmMostly Cloudy
7:50 PM35.6 °F32.0 °F87 %29.53 in6.2 miCalmMostly Cloudy
8:00 PM35.0 °F31.0 °F79 %29.61 inWest (280°)3.5 mph
8:20 PM33.8 °F32.0 °F93 %29.56 in6.2 miVariable2.3 mphMostly Cloudy
8:50 PM33.8 °F32.0 °F93 %29.56 in6.2 miCalmLight Drizzle
9:00 PM34.0 °F32.0 °F87 %29.64 inNW (310°)1.2 mph
9:20 PM33.8 °F32.0 °F93 %29.59 in6.2 miCalmLight Drizzle
9:50 PM33.8 °F32.0 °F93 %29.59 in6.2 miCalmMostly Cloudy
10:00 PM35.0 °F31.0 °F82 %29.66 in7.0 miNW (320°)2.3 mphMist
10:20 PM33.8 °F32.0 °F93 %29.59 in6.2 miCalmMostly Cloudy
10:50 PM33.8 °F32.0 °F93 %29.62 in5.6 miCalmRainLight Rain
11:00 PM35.0 °F32.0 °F83 %29.68 inWest (280°)1.2 mph
11:20 PM33.8 °F33.8 °F100 %29.62 in6.2 miCalmRainLight Rain
11:50 PM33.8 °F32.0 °F93 %29.62 in6.2 miCalmMostly Cloudy
Hourly data recorded from LSGG, located miles away from Annemasse, France







STORIES FROM OUR PARTNERS